Location: Deurze
(52.9838°N, 6.6090°E)
Time: 18:07:51
(UTC+00:00)

Cosmos 2151 - Pass Details

Date: 11 March 2026
Orbit: 559 x 573 km, 82.5° (Epoch: 20 April)

Event Time Altitude Azimuth Distance (km) Brightness Sun altitude
Rises 18:10:39 0° 186° (S) 2,737 6.4 -6.9°
Reaches altitude 10° 18:12:48 10° 185° (S) 1,845 5.5 -7.2°
Maximum altitude 18:16:52 80° 100° (E) 576 2.8 -7.8°
Drops below altitude 10° 18:20:58 10° 13° (NNE) 1,861 5.4 -8.4°
Sets 18:23:09 0° 12° (NNE) 2,763 6.3 -8.7°
